Regional Weather Roundup
Issued by NWS Mobile, AL

Home | Current Version | Previous Version | Text Only | Print | Product List | Glossary On
Versions: 1 2 3 4 5 6 7 8 9 10 11 12 13 14 15 16 17 18 19 20 21 22 23 24 25 26 27 28 29 30 31 32 33 34 35 36 37 38 39 40 41 42 43 44 45 46 47 48 49 50
000
ASUS44 KMOB 291110
RWRMOB
REGIONAL WEATHER ROUNDUP
NATIONAL WEATHER SERVICE MOBILE AL
600 AM CDT TUE JUL 29 2014

NOTE: "FAIR" INDICATES FEW OR NO CLOUDS BELOW 12,000 FEET WITH NO
      SIGNIFICANT WEATHER AND/OR OBSTRUCTIONS TO VISIBILITY.

  * THESE STATIONS ARE PART OF THE UNIVERSITY OF SOUTH ALABAMA
    MESONET AND ARE NOT UNDER NWS OR FAA QUALITY CONTROL.

ALZ061>064-291200-
COASTAL ALABAMA

CITY           SKY/WX    TMP DP  RH WIND       PRES   REMARKS
MOBILE REG APT PTCLDY    70  68  93 N5        30.01R
BROOKLEY FIELD CLEAR     72  68  87 NW5       30.00R
USA CAMPUS*      N/A     70  68  94 CALM      29.99R
DOG RIVER*       N/A     73  68  83 N3        29.99R


CITY           SKY/WX    TMP DP  RH WIND       PRES   REMARKS
MOUNT VERNON*    N/A     64  64 100 CALM      30.00R
SARALAND*      NOT AVBL
BAY MINETTE*   NOT AVBL
LOXLEY*          N/A     70  70 100 N5        29.99R
ROBERTSDALE*     N/A    N/A N/A N/A CALM      29.98R
FAIRHOPE*        N/A     72  68  88 N5        29.98R
ELBERTA*         N/A     73  59  60 N3        29.96
FOLEY*         NOT AVBL
GRAND BAY*       N/A     70  68  94 CALM      29.98R
DAUPHIN ISLND* NOT AVBL
BON SCOUR NWR* NOT AVBL
GULF SHORES      N/A     73  68  86 N3        29.97R

$$

ALZ051>060-291200-
INTERIOR SOUTHWEST AND SOUTH CENTRAL ALABAMA

CITY           SKY/WX    TMP DP  RH WIND       PRES   REMARKS
GREENVILLE     CLEAR     67  62  84 N3        29.98R
EVERGREEN      CLEAR     67  65  93 NW3       29.99R
CASTLEBERRY*   NOT AVBL
ATMORE*          N/A     68  66  94 N6        29.99R
DIXIE*         NOT AVBL
ANDALUSIA/OPP  CLEAR     72  65  78 N3        29.97R
ANDALUSIA*     NOT AVBL
FLORALA APT    CLEAR     70  66  87 N3        29.98R
FLORALA*         N/A     70  64  83 NW3       29.94R

$$

FLZ001>006-291200-
WESTERN FLORIDA PANHANDLE

CITY           SKY/WX    TMP DP  RH WIND       PRES   REMARKS
PENSACOLA      MOCLDY    72  66  81 N6        29.97R
NAS PENSACOLA  MOCLDY    73  70  90 N5        29.96R
MILTON         PTCLDY    70  64  81 N3        29.97R
WHTNG S FIELD  CLEAR     72  65  78 N6        29.97R


CITY           SKY/WX    TMP DP  RH WIND       PRES   REMARKS
WALNUT HILL*   NOT AVBL
JAY*           NOT AVBL
DUKE FIELD     PTCLDY    71  71  99 N5        29.97R
CRESTVIEW      CLEAR     71  68  90 CALM      29.98R
VALPARAISO     MOCLDY    74  69  85 N5        29.95R
DESTIN         CLOUDY    78  69  73 N8        29.95R

$$

MSZ076-079-291200-
INTERIOR SOUTHEAST MISSISSIPPI

CITY           SKY/WX    TMP DP  RH WIND       PRES   REMARKS
LEAKESVILLE*     N/A     68  64  88 NW2         N/A
AGRICOLA*      NOT AVBL

$$

MARINE OBSERVATIONS

STATION/POSITION TIME  TEMP    WIND        PRES    WAVE
                       AIR SEA DIR/SP/G            HT/PER
                 (UTC) (F)     (DEG/KT/KT) (MB)    (FT/S)
PASCAGOULA       1100   75     340/  5/  5 1015.6R
PETIT BOIS ISLND 1100   77      10/ 10/ 13 1015.9R
GRAND BAY        1000   74     360/  5     1016.0R
KATRINA CUT      1000   79      20/ 14     1015.2R
CEDAR POINT      1000   76     360/  7     1014.9R
E DAUPHIN ISLAND 0954   81      20/ 16/ 18 1014.5R
MIDDLE BAY LIGHT 1000   79      20/ 16     1014.6R
USCG MOBILE BAY  1100   74 85  330/  4/  6 1014.4R
STATE DOCKS      1100   75 86              1015.2R
MEAHER PARK      1000   74      10/  3     1014.9R
WEEKS BAY        1000   72                   N/A
12 S ORANGE BCH  1100   80 84   30/ 14/ 16 1014.5R   2/ 3
PENSACOLA BAY    1100   76 87   10/  5/  7 1014.9R
64 S DAUPHIN ISL 1025   83 86  360/ 12/ 14 1014.6R
67 S FORT MORGAN 1000   84                 1019.0S

$$

SELECTED LOCATIONS ACROSS THE REGION

CITY           SKY/WX    TMP DP  RH WIND       PRES   REMARKS
NEW ORLEANS    MOCLDY    79  68  69 N9        30.03R
GULFPORT       CLEAR     76  67  73 NW5       30.01R
PASCAGOULA AP  CLEAR     71  68  90 CALM      30.00R
PASCAGOULA*      N/A     73  68  83 N3        30.00R
HATTIESBURG    PTCLDY    68  66  93 NW3       30.04R
LAUREL         PTCLDY    68  63  83 NW3       30.05R
MERIDIAN       CLEAR     65  63  93 CALM      30.02R
JACKSON        CLEAR     65  64  97 CALM      30.05R
MONTGOMERY     CLEAR     67  62  84 NW3       29.98R
TROY           CLEAR     63  61  93 CALM      29.98R
KINSTON*       NOT AVBL
GENEVA*          N/A     70  66  88 CALM      29.98R
ASHFORD*       NOT AVBL
DOTHAN         PTCLDY    68  65  90 N5        30.00R
PANAMA CITY    MOCLDY    75  71  87 NW5       29.94R

$$




USA.gov is the U.S. government's official web portal to all federal, state and local government web resources and services.